Simultaneous Nadir Overpasses (SNOs) Predictions

Prediction of SNOs between METOP-B and TERRA Satellite Orbit:

Table of predicted SNOs for the next 14.0 days since TLE Epoch: 5/4/2014
Index Date (METOP-B) Time (METOP-B) Lat,Lon (METOP-B) SZA (METOP-B ) Date (TERRA) Time (TERRA) Lat,Lon (TERRA) SZA (TERRA ) Distance(km) Time Diff (sec)
1 05/06/2014 08:00:34 -81.32, -72.52 112.21 05/06/2014 08:01:26 -81.32, -72.64 112.20 2.11 52
2 05/06/2014 08:51:14 81.32, 94.98 67.81 05/06/2014 08:50:52 81.33, 95.15 67.82 3.06 22
3 05/09/2014 03:34:59 -81.32, -6.43 113.01 05/09/2014 03:35:46 -81.31, -6.45 112.99 0.66 47
4 05/09/2014 04:25:38 81.32, 161.46 67.06 05/09/2014 04:25:12 81.32, 161.31 67.02 2.63 26
5 05/11/2014 23:09:22 -81.32, 60.01 113.73 05/11/2014 23:10:04 -81.31, 59.98 113.72 0.87 42
6 05/1
